Weather reports worldwide

Advertisment
Trawscoed, United Kingdom (3503): temperature & dewpoint: 04.04.2020 20:00:00 - 10.04.2020 20:00:00 (BST)Trawscoed, United Kingdom (3503): temperature -20cm & temperature -100cm: 04.04.2020 20:00:00 - 10.04.2020 20:00:00 (BST)Trawscoed, United Kingdom (3503): wind speed & gusts: 04.04.2020 20:00:00 - 10.04.2020 20:00:00 (BST)Trawscoed, United Kingdom (3503): wind direction: 04.04.2020 20:00:00 - 10.04.2020 20:00:00 (BST)Trawscoed, United Kingdom (3503): reduced air pressure: 04.04.2020 20:00:00 - 10.04.2020 20:00:00 (BST)Trawscoed, United Kingdom (3503): visibility: 04.04.2020 20:00:00 - 10.04.2020 20:00:00 (BST)Trawscoed, United Kingdom (3503): precipitation: 04.04.2020 20:00:00 - 10.04.2020 20:00:00 (BST)
Date & Time tt [°C] td [°C] tt -20cm [°C] tt -100cm [°C] ff [km/h] ff [kn] fx [km/h] fx [kn] dd ppp [hPa] vv [km] rr [mm]
10.04.2020 20:00:00 - - - - - - - - - - - -
10.04.2020 19:00:00 19,5 12,3 - - 4 2 - - NW 1020,7 35 0,0
10.04.2020 18:00:00 21,1 11,8 - - 5 3 - - NNW 1020,3 35 0,0
10.04.2020 17:00:00 22,3 10,3 - - 4 2 - - S 1020,4 35 0,0
10.04.2020 16:00:00 24,4 10,6 - - 11 6 - - S 1020,3 30 0,0
10.04.2020 15:00:00 23,9 9,5 - - 16 9 - - S 1020,8 25 0,0
10.04.2020 14:00:00 23,8 11,4 - - 16 9 - - SSW 1021,0 35 0,0
10.04.2020 13:00:00 23,0 10,3 - - 9 5 - - SSE 1021,7 30 0,0
10.04.2020 12:00:00 21,8 11,2 - - 5 3 - - SSE 1022,2 24 0,0
10.04.2020 11:00:00 19,5 10,0 - - 9 5 - - SE 1022,7 21 0,0
10.04.2020 10:00:00 18,0 8,0 10,9 9,2 5 3 - - SE 1022,8 20 0,0
10.04.2020 09:00:00 16,7 10,1 - - 0 0 - - N 1022,8 15 0,0
10.04.2020 08:00:00 14,2 7,5 - - 4 2 - - WSW 1023,0 13 0,0
10.04.2020 07:00:00 12,5 7,1 - - 5 3 - - SW 1022,7 13 0,0
10.04.2020 06:00:00 14,2 7,7 - - 24 13 - - ESE 1022,7 13 0,0
10.04.2020 05:00:00 14,1 8,2 - - 9 5 - - SE 1022,9 12 0,0
10.04.2020 04:00:00 13,6 8,4 - - 9 5 - - SSE 1023,2 14 0,0
10.04.2020 03:00:00 10,5 7,7 - - 0 0 - - N 1023,6 11 0,0
10.04.2020 02:00:00 9,7 7,4 - - 4 2 - - W 1023,7 8 0,0
10.04.2020 01:00:00 12,6 9,1 - - 2 1 - - SW 1023,9 13 0,0
10.04.2020 00:00:00 14,1 9,5 - - 4 2 - - SSW 1023,9 13 0,0
09.04.2020 23:00:00 12,6 10,8 - - 4 2 - - SW 1023,7 15 0,0
09.04.2020 22:00:00 11,6 9,3 - - 0 0 - - N 1023,9 16 0,0
09.04.2020 21:00:00 12,1 9,7 - - 0 0 - - N 1023,7 10 0,0
09.04.2020 20:00:00 15,2 11,0 - - 2 1 - - NW 1023,1 14 0,0
09.04.2020 19:00:00 19,1 10,5 - - 4 2 - - W 1022,7 19 0,0
09.04.2020 18:00:00 19,9 11,1 - - 11 6 - - W 1022,4 23 0,0
09.04.2020 17:00:00 20,8 12,7 - - 13 7 - - WNW 1022,2 23 0,0
09.04.2020 16:00:00 21,7 10,0 - - 11 6 - - E 1022,4 25 0,0
09.04.2020 15:00:00 21,1 9,0 - - 11 6 - - SE 1022,9 23 0,0
09.04.2020 14:00:00 21,5 9,2 - - 13 7 - - SE 1023,1 25 0,0
09.04.2020 13:00:00 20,6 10,3 - - 13 7 - - ESE 1023,6 17 0,0
09.04.2020 12:00:00 19,5 10,2 - - 16 9 - - E 1024,0 15 0,0
09.04.2020 11:00:00 18,3 9,1 - - 4 2 - - ENE 1023,9 14 0,0
09.04.2020 10:00:00 16,6 9,6 10,4 9,0 5 3 - - SE 1024,0 20 0,0
09.04.2020 09:00:00 13,3 8,3 - - 4 2 - - SSW 1024,1 20 0,0
09.04.2020 08:00:00 10,2 8,5 - - 4 2 - - WNW 1023,9 28 0,0
09.04.2020 07:00:00 8,7 6,2 - - 4 2 - - WNW 1023,6 45 0,0
09.04.2020 06:00:00 8,7 6,6 - - 5 3 - - NW 1023,6 40 0,0
09.04.2020 05:00:00 7,9 6,8 - - 4 2 - - NW 1023,8 45 0,0
09.04.2020 04:00:00 4,9 4,6 - - 0 0 - - N 1024,1 16 0,0
09.04.2020 03:00:00 4,9 4,5 - - 2 1 - - SE 1024,4 17 0,0
09.04.2020 02:00:00 5,2 4,4 - - 2 1 - - NNW 1024,4 23 0,0
09.04.2020 01:00:00 5,7 4,8 - - 2 1 - - ESE 1024,5 26 0,0
09.04.2020 00:00:00 6,4 5,7 - - 2 1 - - SSE 1024,8 22 0,0
08.04.2020 23:00:00 6,2 5,5 - - 2 1 - - WNW 1025,0 35 0,0
08.04.2020 22:00:00 6,4 5,4 - - 2 1 - - WNW 1025,1 35 0,0
08.04.2020 21:00:00 7,9 5,9 - - 0 0 - - N 1024,9 35 0,0
08.04.2020 20:00:00 10,9 6,7 - - 5 3 - - NNW 1024,4 28 0,0
08.04.2020 19:00:00 13,8 6,5 - - 13 7 - - WNW 1024,1 40 0,0
08.04.2020 18:00:00 16,3 7,2 - - 9 5 - - W 1023,3 5 0,0
08.04.2020 17:00:00 17,9 8,5 - - 13 7 - - WNW 1023,4 45 0,0
08.04.2020 16:00:00 17,9 8,1 - - 11 6 - - NNW 1023,5 24 0,0
08.04.2020 15:00:00 18,4 9,8 - - 11 6 - - WNW 1023,8 35 0,0
08.04.2020 14:00:00 19,2 9,3 - - 5 3 - - W 1024,0 30 0,0
08.04.2020 13:00:00 17,5 7,6 - - 2 1 - - NNW 1024,5 45 0,0
08.04.2020 12:00:00 16,3 8,6 - - 0 0 - - N 1025,4 40 0,0
08.04.2020 11:00:00 14,3 7,5 - - 0 0 - - N 1025,7 9 0,0
08.04.2020 10:00:00 13,3 8,0 9,9 8,9 0 0 - - N 1025,6 40 0,0
08.04.2020 09:00:00 9,7 7,8 - - 0 0 - - N 1025,6 35 0,0
08.04.2020 08:00:00 7,0 6,8 - - 0 0 - - N 1025,7 30 0,0
08.04.2020 07:00:00 4,8 3,7 - - 0 0 - - N 1025,4 6 0,0
08.04.2020 06:00:00 6,7 5,1 - - 4 2 - - ESE 1025,5 30 0,0
08.04.2020 05:00:00 8,3 6,7 - - 0 0 - - N 1025,7 24 0,0
08.04.2020 04:00:00 8,4 6,6 - - 2 1 - - SE 1025,9 40 0,0
08.04.2020 03:00:00 8,2 6,4 - - 0 0 - - N 1026,2 45 0,0
08.04.2020 02:00:00 7,7 6,5 - - 2 1 - - SSE 1026,8 45 0,0
08.04.2020 01:00:00 7,3 6,2 - - 2 1 - - SE 1026,9 35 0,0
08.04.2020 00:00:00 5,9 4,9 - - 2 1 - - SSE 1026,8 30 0,0
07.04.2020 23:00:00 7,0 4,9 - - 4 2 - - SSE 1026,7 35 0,0
07.04.2020 22:00:00 8,7 6,6 - - 0 0 - - N 1026,8 40 0,0
07.04.2020 21:00:00 8,7 6,1 - - 0 0 - - N 1026,8 45 0,0
07.04.2020 20:00:00 9,4 5,2 - - 0 0 - - N 1026,6 35 0,0
07.04.2020 19:00:00 14,3 4,9 - - 2 1 - - NW 1026,5 35 0,0
07.04.2020 18:00:00 14,9 6,5 - - 8 4 - - NNW 1026,5 40 0,0
07.04.2020 17:00:00 16,1 4,4 - - 9 5 - - SSW 1026,6 29 0,0
07.04.2020 16:00:00 16,0 4,9 - - 13 7 - - S 1027,0 19 0,0
07.04.2020 15:00:00 16,1 4,7 - - 15 8 - - S 1027,3 22 0,0
07.04.2020 14:00:00 15,7 5,4 - - 16 9 - - SSE 1027,7 13 0,0
07.04.2020 13:00:00 15,2 5,4 - - 16 9 - - S 1028,0 35 0,0
07.04.2020 12:00:00 14,0 5,5 - - 16 9 - - SSE 1028,4 25 0,0
07.04.2020 11:00:00 13,4 6,4 - - 11 6 - - S 1028,8 30 0,0
07.04.2020 10:00:00 10,6 5,7 9,7 8,7 2 1 - - ENE 1029,1 23 0,2
07.04.2020 09:00:00 4,9 4,1 - - 2 1 - - S 1029,8 22 0,0
07.04.2020 08:00:00 1,5 1,5 - - 0 0 - - N 1029,8 12 0,0
07.04.2020 07:00:00 -1,4 -1,6 - - 0 0 - - N 1029,4 13 0,0
07.04.2020 06:00:00 -0,7 -0,9 - - 0 0 - - N 1029,3 10 0,0
07.04.2020 05:00:00 0,2 0,0 - - 2 1 - - SE 1029,1 11 0,0
07.04.2020 04:00:00 -0,3 -0,5 - - 0 0 - - N 1028,9 15 0,0
07.04.2020 03:00:00 -0,2 -0,5 - - 0 0 - - N 1028,6 13 0,0
07.04.2020 02:00:00 0,5 0,3 - - 2 1 - - SE 1028,4 11 0,0
07.04.2020 01:00:00 0,7 0,4 - - 0 0 - - N 1028,0 13 0,0
07.04.2020 00:00:00 1,5 1,0 - - 0 0 - - N 1027,5 17 0,0
06.04.2020 23:00:00 2,2 1,4 - - 2 1 - - WNW 1026,6 14 0,0
06.04.2020 22:00:00 4,0 3,0 - - 4 2 - - ESE 1025,9 16 0,0
06.04.2020 21:00:00 5,3 3,4 - - 5 3 - - ENE 1025,0 13 0,0
06.04.2020 20:00:00 8,1 3,9 - - 4 2 - - N 1023,8 16 0,0
06.04.2020 19:00:00 10,5 5,4 - - 13 7 - - W 1023,1 17 0,0
06.04.2020 18:00:00 11,6 4,9 - - 13 7 - - W 1022,4 18 0,0
06.04.2020 17:00:00 12,2 5,6 - - 15 8 - - WNW 1021,4 22 0,0
06.04.2020 16:00:00 12,1 5,6 - - 16 9 - - W 1020,4 15 0,0
06.04.2020 15:00:00 12,3 5,8 - - 18 10 - - W 1019,8 14 0,0
06.04.2020 14:00:00 12,4 5,9 - - 18 10 - - WSW 1018,6 17 0,0
06.04.2020 13:00:00 11,4 6,1 - - 24 13 - - W 1017,6 15 0,0
06.04.2020 12:00:00 11,1 5,5 - - 24 13 - - W 1016,3 18 0,0
06.04.2020 11:00:00 10,5 7,2 - - 16 9 - - WSW 1015,1 16 0,0
06.04.2020 10:00:00 10,6 7,2 9,7 8,7 13 7 - - WSW 1013,8 12 0,0
06.04.2020 09:00:00 10,2 7,9 - - 13 7 - - SW 1012,6 11 0,0
06.04.2020 08:00:00 7,5 6,4 - - 5 3 - - S 1011,4 10 0,0
06.04.2020 07:00:00 6,8 5,4 - - 8 4 - - S 1010,0 11 0,0
06.04.2020 06:00:00 8,4 6,8 - - 9 5 - - S 1009,0 12 0,0
06.04.2020 05:00:00 9,9 7,2 - - 13 7 - - SSW 1008,2 14 0,0
06.04.2020 04:00:00 10,3 8,5 - - 8 4 - - S 1007,4 16 0,0
06.04.2020 03:00:00 10,5 8,6 - - 8 4 - - S 1006,6 22 0,0
06.04.2020 02:00:00 11,1 8,5 - - 18 10 - - SSW 1005,6 50 0,4
06.04.2020 01:00:00 12,9 11,6 - - 18 10 50 27 S 1004,0 4,7 0,4
06.04.2020 00:00:00 13,2 11,5 - - 28 15 - - S 1003,6 22 1,4
05.04.2020 23:00:00 12,9 11,5 - - 26 14 50 27 SSE 1003,5 7 2,2
05.04.2020 22:00:00 14,3 9,7 - - 24 13 50 27 SSE 1003,2 10 0,0
05.04.2020 21:00:00 14,0 9,6 - - 22 12 - - SE 1003,7 24 0,0
05.04.2020 20:00:00 15,9 8,1 - - 21 11 - - SE 1003,5 30 0,0
05.04.2020 19:00:00 16,6 7,7 - - 26 14 46 25 SSE 1003,7 35 0,0
05.04.2020 18:00:00 17,7 7,4 - - 26 14 - - SSE 1003,8 40 0,0
05.04.2020 17:00:00 19,5 8,2 - - 22 12 46 25 SSE 1004,0 35 0,0
05.04.2020 16:00:00 20,1 7,7 - - 26 14 50 27 SSE 1004,5 45 0,0
05.04.2020 15:00:00 20,7 7,6 - - 26 14 46 25 S 1004,8 18 0,0
05.04.2020 14:00:00 20,6 7,7 - - 26 14 57 31 S 1005,0 22 0,0
05.04.2020 13:00:00 19,2 6,4 - - 31 17 57 31 S 1005,8 35 0,0
05.04.2020 12:00:00 17,9 6,2 - - 16 9 - - SE 1006,4 20 0,0
05.04.2020 11:00:00 15,2 5,4 - - 26 14 52 28 ESE 1007,1 29 0,0
05.04.2020 10:00:00 13,2 4,3 9,0 8,7 21 11 - - SE 1008,0 40 0,0
05.04.2020 09:00:00 12,5 3,4 - - 11 6 - - SE 1008,8 45 0,0
05.04.2020 08:00:00 11,8 3,5 - - 16 9 - - SSE 1009,4 50 0,0
05.04.2020 07:00:00 9,4 2,7 - - 9 5 - - SSE 1009,8 45 0,0
05.04.2020 06:00:00 10,3 2,8 - - 24 13 - - ESE 1010,0 45 0,0
05.04.2020 05:00:00 10,9 2,9 - - 28 15 - - SE 1010,6 50 0,0
05.04.2020 04:00:00 11,3 3,2 - - 26 14 - - SE 1011,2 45 0,0
05.04.2020 03:00:00 11,1 3,4 - - 22 12 - - SE 1011,7 50 0,0
05.04.2020 02:00:00 10,3 3,3 - - 16 9 - - SSE 1012,8 50 0,0
05.04.2020 01:00:00 8,1 2,1 - - 4 2 50 27 NW 1014,2 50 0,0
05.04.2020 00:00:00 8,6 2,5 - - 5 3 - - S 1014,7 50 0,0
04.04.2020 23:00:00 9,3 2,7 - - 8 4 - - SSE 1015,1 50 0,0
04.04.2020 22:00:00 10,3 2,9 - - 15 8 - - SSE 1015,1 50 0,0
04.04.2020 21:00:00 10,0 3,2 - - 9 5 - - SE 1015,0 50 0,0
04.04.2020 20:00:00 11,9 3,7 - - 9 5 - - SE 1014,9 50 0,0

tt = temperature
td = dewpoint
tt -20cm = temperature -20cm
tt -100cm = temperature -100cm
ff = wind speed
fx = gusts
dd = wind direction
ppp = reduced air pressure
vv = visibility
rr = precipitation

Next stations